Regional Weather Roundup
Issued by NWS

Home | Current Version | Previous Version | Graphics & Text | Print | Product List | Glossary On
Versions: 1 2 3 4 5 6 7 8 9 10 11 12 13 14 15 16 17 18 19 20 21 22 23 24 25 26 27 28 29 30 31 32 33 34 35 36 37 38 39 40 41 42 43 44 45 46 47 48 49 50
000
ASUS45 KCYS 192210
RWRWY

WYOMING REGIONAL WEATHER ROUNDUP
NATIONAL WEATHER SERVICE CHEYENNE WY
400 PM MDT FRI SEP 19 2014

NOTE:  "FAIR" INDICATES FEW OR NO CLOUDS BELOW 12,000 FEET
WITH NO SIGNIFICANT WEATHER AND/OR OBSTRUCTIONS TO VISIBILITY.

WYZ001-192300-
YELLOWSTONE NATIONAL PARK

CITY           SKY/WX    TMP DP  RH WIND       PRES   REMARKS
LK YELLOWSTONE   N/A     61  40  45 MISG      30.23R
W YELLOWSTONE  NOT AVBL

$$
WYZ002>013-054>058-071-098>099-192300-
NORTHERN WYOMING

CITY           SKY/WX    TMP DP  RH WIND       PRES   REMARKS
JACKSON        NOT AVBL
CODY             N/A    N/A N/A N/A MISG        N/A
GREYBULL       PTSUNNY   82  46  28 S7        29.89F
WORLAND        SUNNY     80  42  25 S5        29.91F
SHERIDAN       MOSUNNY   74  48  39 N15G21    29.93R
BUFFALO        MOSUNNY   75  48  38 N10       29.98S
GILLETTE       MOSUNNY   75  46  35 NW9       29.92S
HULETT         MOCLDY    77  45  31 MISG      29.93
NEWCASTLE      FAIR      79  39  24 NW15      29.91

$$
WYZ014>020-022>026-101>103-192300-
CENTRAL WYOMING

CITY           SKY/WX    TMP DP  RH WIND       PRES   REMARKS
BIG PINEY      SUNNY     74  30  19 NW10      30.17F
PINEDALE       CLEAR     70  32  24 W16G24    30.18F
DUBOIS         MOCLDY    70  34  26 NW18G24   30.14S
LANDER         SUNNY     82  35  18 E6        29.98F
RIVERTON       SUNNY     82  33  17 NW13G21   29.99F
CASPER         SUNNY     83  33  16 W15G22    29.96F
DOUGLAS        SUNNY     84  38  19 W13G26    29.94F

$$
WYZ021-027>030-104>119-192300-
SOUTHERN WYOMING

CITY           SKY/WX    TMP DP  RH WIND       PRES   REMARKS
EVANSTON       SUNNY     75  42  30 W9        30.19F
KEMMERER       CLEAR     72  36  26 W15G25    30.20F
FORT BRIDGER   FAIR      77  39  26 NW18      30.21F
ROCK SPRINGS   SUNNY     75  36  24 SW16G23   30.15S
DIXON          CLOUDY    77  44  31 W10       30.15R
RAWLINS        MOSUNNY   77  37  23 W23       30.12S
SARATOGA       MOCLDY    77  41  27 W12G21    30.15R
LARAMIE        MOSUNNY   77  40  26 W14       30.11S
CHEYENNE       MOSUNNY   84  40  21 NW12G23   30.01S
TORRINGTON     SUNNY     88  46  23 N9        29.86F
PINE BLUFFS    MOCLDY    81  41  24 N10G18    29.94F

$$


USA.gov is the U.S. government's official web portal to all federal, state and local government web resources and services.